Temperature
21 23 23 23 23 23 22 20 20 19 19 19 18 18 19 19 20 20 20 19 20 20 20 19 19 19 19 19 19 18 18 18 17 17 17 17 17 17 17 17 17 17 17 17
21 23 23 22 23 23 22 21 20 20 19 19 18 18 18 19 19 19 19 19 19 19 19 19 19 19 19 19 18 18 18 18 18 17 17 17 17 17 17 17 17 16 16 16
19 21 22 20 21 21 21 20 20 19 18 18 17 17 17 18 19 19 19 19 19 19 19 19 19 19 19 19 18 18 18 18 18 18 17 17 17 17 17 17 17 16 17 16
17 20 20 19 20 21 20 19 19 18 17 17 17 17 18 18 18 18 18 18 18 19 19 19 19 19 19 19 18 18 18 18 18 18 18 17 17 17 17 17 17 16 16 16
16 18 19 20 20 20 19 17 18 17 17 17 17 17 17 18 18 18 18 18 18 18 18 18 18 18 18 18 18 18 18 18 18 18 17 17 17 17 17 17 17 16 16 16
16 18 18 18 19 20 19 17 17 17 16 16 17 16 15 16 17 17 17 17 17 18 18 18 18 18 18 18 18 18 18 18 18 17 17 17 17 17 17 17 16 16 16 16
16 17 17 17 18 19 18 16 16 16 16 16 15 15 15 16 16 16 16 17 17 17 17 17 18 18 18 18 18 18 18 18 18 17 17 17 17 17 17 17 16 16 16 16
15 16 16 16 17 16 15 15 16 16 16 15 15 15 15 15 15 16 16 16 16 16 16 17 17 17 17 17 17 17 17 18 17 17 17 17 17 17 17 16 16 16 16 16
14 14 14 15 15 15 16 15 15 15 15 15 15 14 14 14 14 14 15 15 15 16 16 16 16 16 16 17 17 17 17 17 17 17 17 17 17 16 16 16 16 16 15 15
13 13 14 14 15 15 15 15 15 15 15 15 14 14 13 13 13 13 14 14 14 15 15 15 15 15 16 16 16 17 17 17 16 17 17 16 16 16 16 16 16 15 15 15
13 13 13 13 14 14 14 14 14 14 14 14 14 13 13 13 13 13 13 13 13 14 14 14 14 15 15 15 16 16 16 16 16 16 16 16 16 15 15 15 15 15 15 15
13 13 12 12 13 13 13 13 13 13 13 13 13 13 12 12 12 12 12 12 12 12 13 13 13 14 14 14 15 15 15 15 15 15 15 15 15 15 14 15 15 15 14 14
14 14 13 13 13 13 13 13 13 13 13 12 12 12 12 11 11 11 12 12 12 12 12 12 13 13 13 14 14 15 15 15 15 14 14 14 14 14 14 13 13 13 13 13
14 13 12 12 12 12 13 12 12 12 12 12 11 11 11 11 11 11 11 11 11 11 11 12 12 12 12 13 13 13 14 14 14 14 14 14 13 13 13 13 13 12 12 12
13 13 13 12 12 12 12 12 11 11 11 11 11 11 11 11 10 10 10 11 11 11 11 11 11 11 12 12 12 13 13 13 13 13 13 13 13 12 12 12 12 12 11 11
13 13 12 12 12 11 11 11 11 11 11 11 10 11 11 10 10 10 10 10 10 10 10 10 10 11 11 11 12 12 12 12 12 12 12 12 12 12 11 11 11 11 11 11
12 11 11 11 11 11 11 11 11 11 10 10 10 10 10 10 10 10 10 10 10 10 10 10 10 10 11 11 11 11 11 11 11 11 11 11 11 11 11 10 10 10 10 10
13 12 12 12 11 11 11 11 11 11 10 10 10 10 10 10 10 9 10 10 10 10 10 10 10 10 10 10 10 10 10 10 10 10 10 10 10 10 10 10 9 9 9 9
12 12 12 12 11 11 11 11 11 10 10 10 10 10 10 10 10 9 10 10 10 9 9 9 10 10 10 10 10 10 10 10 10 10 9 9 9 9 9 9 9 9 8 8
12 12 12 11 11 11 11 11 10 10 10 10 10 10 10 9 9 9 9 9 9 9 9 9 9 9 9 9 9 9 9 9 9 9 9 9 8 8 8 8 8 8 8 8
11 11 11 11 11 11 11 10 10 10 10 10 10 10 9 9 9 9 9 9 9 9 9 9 9 9 9 9 9 9 9 9 9 8 8 8 8 8 8 7 7 7 7 7
11 11 11 11 10 10 10 10 10 10 10 10 10 9 9 9 9 9 9 9 8 9 9 9 9 9 9 9 9 8 8 8 8 8 8 7 7 7 7 7 7 7 7 6
10 11 10 10 10 10 10 10 10 10 10 10 9 9 9 9 9 9 8 8 8 8 9 8 8 8 8 8 8 8 8 7 7 7 7 7 7 7 6 6 6 6 6 6
10 10 10 10 10 10 10 10 10 10 10 9 9 9 9 9 8 8 8 8 8 8 8 8 8 8 8 8 7 7 7 7 7 7 7 6 6 6 6 6 6 6 5 5
10 10 10 10 10 10 10 10 9 9 9 9 9 9 9 9 8 8 8 8 8 8 8 7 7 7 7 7 7 7 7 6 6 6 6 6 6 5 5 5 5 5 5 5
10 10 10 10 10 10 10 9 9 9 9 9 8 8 8 8 8 8 8 7 7 7 7 7 7 7 7 6 6 6 6 6 6 6 5 5 5 5 5 5 4 4 4 4
9 9 10 10 9 9 9 9 9 9 9 9 8 8 8 8 8 7 7 7 7 7 7 6 6 6 6 6 6 6 5 5 5 5 5 5 5 4 4 4 4 4 4 3
Wind_Speed
4 5 4 3 2 3 4 6 7 6 7 4 4 4 3 2 2 3 2 3 4 5 5 6 8 9 10 10 10 11 11 11 10 10 10 10 10 10 9 10 11 10 10 9
2 3 6 5 4 4 5 6 8 9 4 2 3 4 5 3 4 4 2 2 4 5 5 6 7 8 9 10 10 11 12 11 10 10 10 10 10 10 10 9 9 9 10 10
1 1 5 2 1 3 5 4 8 6 4 5 5 4 4 4 5 5 3 2 1 3 5 6 6 7 8 9 9 10 11 11 10 11 11 11 11 10 10 10 9 10 10 10
3 5 3 4 0 7 9 6 7 8 6 7 6 4 4 4 6 5 3 3 2 1 1 2 3 4 5 6 8 10 10 11 11 11 11 10 10 11 10 9 9 9 10 10
4 3 1 1 2 3 7 5 5 10 8 7 7 7 6 6 6 4 2 1 1 1 1 1 1 3 5 5 6 8 9 10 11 12 11 11 11 11 9 9 8 8 8 9
4 4 3 3 3 1 9 4 2 6 6 5 5 4 1 4 5 5 5 3 3 3 2 2 1 2 5 5 5 6 7 8 8 10 11 12 11 10 8 8 9 8 8 8
4 3 1 4 5 2 5 4 1 3 4 5 3 4 2 4 5 6 6 6 5 4 2 1 1 1 3 4 5 6 5 6 7 8 10 10 10 9 8 8 8 8 8 8
4 3 3 4 3 3 4 4 5 5 6 8 7 6 6 6 6 7 7 8 7 5 4 3 2 2 2 2 3 3 4 4 5 6 7 7 7 8 8 9 9 8 7 6
3 3 0 3 5 5 6 7 6 5 6 8 8 7 6 6 6 7 8 7 7 6 6 5 4 3 2 1 0 2 4 5 5 6 6 6 7 7 6 7 7 7 6 6
5 4 5 6 7 7 8 8 8 7 7 8 9 8 7 7 7 7 8 8 7 7 7 6 6 5 3 2 0 2 3 4 4 5 5 5 5 5 5 6 6 6 6 6
5 5 6 6 6 7 8 9 10 9 9 9 10 10 8 7 7 7 7 7 8 8 8 7 6 6 6 5 3 2 3 3 4 4 5 5 5 4 4 2 4 6 5 5
4 5 5 4 3 7 8 8 9 10 10 9 9 9 9 8 7 7 7 8 8 9 9 8 8 8 8 7 5 4 4 4 4 4 5 6 6 6 9 6 7 7 5 6
5 6 7 7 6 7 8 9 9 10 10 9 8 8 9 8 7 7 8 9 9 9 8 8 9 9 9 7 6 5 5 5 4 5 5 5 5 6 6 6 10 10 7 7
9 9 9 7 7 8 10 11 11 11 10 9 8 8 8 9 9 9 9 8 8 9 9 9 10 10 9 7 6 6 6 6 6 5 5 5 5 4 4 5 5 4 6 7
6 8 9 10 10 10 10 11 11 10 9 9 8 8 8 9 9 8 7 7 9 10 10 10 11 10 9 8 8 7 7 6 5 5 5 6 5 5 5 5 5 4 4 4
8 10 11 11 11 10 10 10 10 8 8 8 8 8 8 8 8 8 7 8 9 10 9 10 10 9 9 9 9 8 7 10 9 6 6 6 6 5 5 5 5 4 4 3
10 9 10 10 10 9 8 8 8 8 7 8 7 7 8 9 9 8 7 7 8 8 8 9 9 9 9 9 9 8 7 8 11 9 8 7 6 6 5 5 5 5 4 5
7 8 10 11 10 9 9 9 8 8 7 7 8 8 9 9 8 7 6 6 8 9 9 8 8 9 10 10 9 8 7 7 8 8 8 8 7 6 6 6 6 6 5 6
9 10 10 11 10 10 9 8 7 7 7 7 9 8 8 8 7 7 6 8 8 8 7 8 11 10 9 11 11 8 8 8 9 8 8 9 8 7 7 7 7 6 6 5
9 10 11 11 10 9 9 8 7 7 7 7 9 9 8 7 6 7 7 7 4 2 3 6 7 7 7 8 11 8 8 8 8 8 8 7 7 7 6 6 6 6 6 5
11 11 11 11 10 9 8 9 9 8 8 8 9 9 8 7 6 6 7 6 5 5 6 8 7 6 6 7 9 7 7 7 7 7 7 7 7 7 6 6 6 5 5 4
9 10 11 10 10 9 7 8 9 9 9 9 9 9 9 8 8 7 6 4 3 6 6 6 5 8 10 10 7 7 7 7 6 6 6 6 6 6 6 6 5 5 5 4
8 9 9 9 9 9 8 8 9 9 9 9 8 8 8 6 5 5 4 3 4 8 7 6 9 12 12 9 7 7 8 7 6 6 6 6 6 6 5 5 5 5 5 5
8 8 7 8 9 10 9 8 8 8 8 8 8 8 7 6 5 4 3 5 8 8 6 8 11 12 10 7 6 7 7 6 6 6 6 6 6 6 6 6 5 5 6 6
8 8 8 9 9 7 8 9 9 9 8 7 7 6 5 5 5 4 4 6 7 8 7 10 13 12 8 6 7 6 6 6 6 5 6 6 6 5 5 5 5 5 5 5
7 7 6 7 7 6 6 7 7 6 6 6 6 5 5 5 6 5 5 5 7 8 7 6 7 8 7 6 7 7 6 6 7 7 6 6 6 6 5 6 7 5 5 5
8 7 6 6 6 6 6 7 7 6 6 6 6 4 5 5 5 5 5 5 5 6 5 6 6 6 6 6 6 6 6 6 6 6 5 5 5 5 5 6 5 5 5 5
Wind_Direction
166 160 122 111 100 97 123 154 154 167 152 174 163 150 162 156 116 103 133 167 169 176 179 185 187 186 184 183 180 178 176 180 189 189 183 181 183 184 182 182 184 181 180 180
73 106 91 70 58 78 91 116 121 120 115 143 132 99 87 79 86 79 84 165 166 167 170 185 188 185 185 188 184 178 182 185 184 183 183 183 184 183 182 183 182 178 182 181
156 75 78 61 29 90 91 107 129 141 167 137 108 96 102 87 86 73 44 33 135 178 184 190 194 186 185 190 183 181 185 186 183 184 187 188 187 184 185 185 183 184 185 185
98 73 143 236 323 110 100 82 100 107 107 108 113 104 82 83 87 74 68 51 26 351 215 201 186 178 178 178 180 184 187 188 189 190 192 189 185 188 190 186 186 188 189 189
104 119 136 320 11 113 113 69 81 110 108 110 114 86 57 47 65 62 41 38 27 336 253 150 145 172 169 167 177 183 190 195 194 192 191 189 191 192 190 186 188 190 189 189
114 123 178 248 314 75 103 83 18 104 114 121 102 89 62 26 37 39 27 31 30 7 11 43 5 162 161 170 177 192 198 198 194 191 188 189 192 191 185 184 189 189 192 194
125 132 213 288 302 27 118 184 179 102 106 98 92 132 123 42 35 31 26 24 27 22 21 22 6 123 152 173 197 203 196 186 185 191 192 190 188 186 182 185 185 188 192 196
125 135 227 318 43 103 152 142 106 94 97 100 102 93 76 56 38 32 28 26 24 25 29 28 47 90 129 185 223 199 180 177 180 182 186 185 179 184 182 181 183 187 189 196
134 146 80 30 91 103 119 113 102 99 98 104 95 83 73 61 50 42 36 28 22 32 38 35 40 57 76 339 287 174 171 179 185 181 182 176 174 179 176 177 181 187 186 194
90 85 73 65 74 72 83 94 98 102 99 99 98 90 76 62 53 45 40 33 30 34 40 35 31 35 19 354 16 144 168 178 174 168 167 162 158 168 172 177 182 184 185 189
98 121 86 65 71 82 86 89 90 87 88 93 96 90 82 69 57 49 44 38 39 39 38 33 29 30 20 16 40 94 125 140 142 139 137 130 113 105 136 152 182 176 180 178
168 177 141 139 113 99 95 95 98 98 89 80 88 92 85 73 62 57 51 44 42 38 34 32 35 32 22 17 38 72 94 102 113 118 119 121 120 102 70 82 86 101 123 142
136 127 119 119 105 97 104 100 96 96 97 92 84 88 86 78 63 58 54 46 43 40 36 36 38 32 18 16 31 55 81 93 97 104 112 117 122 127 116 78 70 73 83 109
117 114 107 106 105 102 104 100 95 89 85 86 90 87 84 80 71 62 55 47 44 45 41 40 41 31 16 21 42 57 68 81 93 101 104 106 110 116 123 124 109 78 59 71
91 112 120 114 110 105 101 101 96 89 87 83 89 91 89 85 76 64 53 48 49 48 41 40 39 26 15 26 46 55 65 72 82 88 91 94 95 96 97 103 109 107 90 70
106 108 112 112 115 115 111 110 107 102 96 95 93 92 93 91 82 69 56 52 55 47 38 40 35 21 21 33 45 52 60 73 79 83 86 88 90 94 94 94 95 96 92 87
121 127 127 124 121 120 117 116 116 113 107 107 104 101 96 89 81 70 58 52 57 50 40 39 33 26 31 38 48 53 57 66 72 75 76 80 82 84 86 88 89 86 78 70
125 128 133 132 126 119 116 114 111 109 110 111 107 99 95 95 93 84 70 60 57 48 37 32 35 39 39 41 49 53 58 64 67 70 71 72 74 73 78 79 79 80 75 69
113 115 121 123 122 121 119 119 117 111 109 111 107 102 99 96 95 90 78 66 59 46 19 23 40 46 44 45 54 56 59 63 66 67 70 72 72 69 70 74 75 73 71 70
106 108 113 115 116 120 120 120 115 109 109 110 105 101 97 92 90 86 77 66 49 32 16 33 40 40 38 46 58 59 62 65 67 67 68 69 71 70 69 72 73 73 72 70
109 110 115 118 118 116 117 118 115 111 108 105 105 104 100 92 84 83 81 66 17 24 40 43 44 41 44 54 60 63 65 66 67 69 71 72 72 70 68 67 67 68 69 68
106 108 113 115 114 112 110 110 109 107 105 102 100 99 95 88 82 73 67 69 41 48 52 44 48 57 59 59 59 62 65 66 65 69 73 74 75 74 70 68 66 65 62 64
103 105 109 112 115 113 107 106 106 105 102 100 98 98 98 94 92 94 75 31 50 59 58 55 62 62 60 58 57 59 62 64 64 67 72 75 74 75 75 71 65 64 62 58
99 99 103 106 106 103 100 103 101 97 96 95 96 100 102 94 73 64 86 72 66 67 63 61 62 62 61 59 57 58 59 60 62 65 67 68 68 67 65 64 62 58 58 58
101 99 99 102 103 107 107 104 97 92 91 89 88 87 89 97 99 87 77 71 68 68 64 60 61 62 60 62 60 58 56 60 66 67 67 70 69 68 65 63 60 56 56 55
96 96 97 100 106 109 109 106 106 105 103 97 85 81 81 80 84 82 77 69 66 69 66 61 60 62 61 62 62 60 58 57 61 66 70 71 69 65 62 61 62 60 60 61
91 90 87 84 85 95 102 107 111 108 107 106 97 87 86 83 80 77 75 72 70 70 68 63 63 66 67 66 65 63 61 60 59 59 60 60 62 67 68 68 64 63 64 62
Height
1422 1419 1420 1424 1426 1428 1434 1442 1453 1455 1455 1453 1451 1450 1450 1449 1449 1448 1450 1452 1453 1455 1457 1459 1461 1463 1464 1466 1469 1471 1474 1477 1480 1483 1486 1489 1492 1494 1497 1500 1503 1506 1509 1512
1425 1419 1420 1427 1427 1428 1431 1436 1443 1447 1453 1449 1450 1450 1449 1449 1449 1448 1450 1451 1452 1454 1456 1457 1459 1460 1462 1464 1467 1469 1471 1474 1477 1480 1483 1486 1489 1492 1495 1498 1500 1503 1506 1509
1437 1426 1427 1441 1434 1432 1435 1435 1439 1449 1451 1448 1450 1451 1451 1450 1450 1451 1451 1451 1452 1453 1454 1455 1457 1458 1460 1462 1465 1467 1469 1471 1474 1477 1480 1483 1486 1489 1491 1494 1497 1500 1503 1506
1441 1438 1452 1444 1428 1429 1435 1439 1438 1442 1446 1447 1449 1451 1451 1451 1451 1452 1452 1452 1452 1452 1452 1453 1455 1455 1457 1460 1462 1464 1466 1469 1471 1474 1477 1480 1482 1485 1488 1491 1494 1497 1500 1503
1446 1449 1447 1438 1432 1432 1437 1447 1442 1443 1446 1448 1449 1449 1452 1453 1452 1454 1454 1452 1451 1451 1451 1451 1452 1453 1455 1457 1459 1461 1463 1465 1468 1471 1473 1476 1479 1482 1485 1488 1491 1494 1496 1499
1445 1449 1454 1445 1433 1430 1435 1452 1447 1444 1446 1447 1448 1454 1457 1455 1453 1453 1453 1452 1450 1450 1449 1449 1449 1451 1453 1454 1456 1458 1460 1462 1465 1467 1470 1472 1475 1479 1481 1484 1487 1490 1493 1496
1444 1450 1448 1439 1433 1431 1448 1453 1447 1446 1447 1448 1450 1453 1455 1454 1454 1452 1451 1450 1449 1448 1448 1447 1448 1449 1450 1451 1452 1454 1457 1459 1461 1464 1466 1469 1472 1475 1478 1481 1484 1486 1489 1492
1445 1452 1453 1438 1436 1440 1445 1444 1445 1447 1448 1448 1451 1452 1453 1453 1452 1451 1450 1449 1447 1446 1446 1446 1446 1446 1447 1448 1450 1452 1454 1456 1458 1460 1463 1465 1468 1471 1474 1477 1479 1482 1484 1487
1442 1447 1443 1439 1439 1441 1441 1443 1445 1447 1449 1449 1450 1451 1453 1453 1452 1451 1450 1448 1447 1445 1445 1445 1445 1445 1445 1446 1448 1450 1451 1453 1454 1457 1459 1462 1464 1467 1470 1472 1474 1477 1479 1482
1441 1444 1443 1442 1442 1443 1443 1444 1446 1448 1449 1450 1451 1452 1453 1453 1452 1451 1450 1448 1447 1446 1444 1444 1444 1444 1445 1445 1446 1447 1448 1449 1451 1453 1456 1458 1461 1463 1466 1468 1470 1473 1475 1478
1441 1444 1444 1445 1445 1445 1446 1448 1448 1450 1451 1451 1451 1453 1454 1454 1453 1453 1452 1450 1449 1447 1446 1445 1444 1444 1444 1444 1444 1445 1446 1447 1448 1450 1452 1454 1457 1459 1462 1465 1467 1470 1472 1474
1441 1441 1443 1446 1447 1447 1448 1449 1450 1451 1452 1453 1453 1454 1455 1455 1455 1454 1454 1452 1451 1449 1448 1447 1446 1444 1444 1444 1444 1444 1444 1445 1446 1448 1450 1452 1454 1457 1460 1462 1465 1467 1470 1472
1437 1440 1442 1445 1447 1448 1449 1451 1452 1452 1453 1455 1456 1457 1457 1457 1457 1457 1456 1455 1453 1452 1451 1449 1448 1446 1446 1445 1445 1444 1444 1445 1446 1448 1449 1452 1454 1456 1458 1461 1463 1466 1468 1469
1438 1440 1444 1446 1449 1451 1452 1453 1454 1455 1456 1457 1458 1459 1459 1459 1459 1459 1459 1458 1457 1455 1454 1452 1450 1449 1449 1447 1446 1445 1445 1446 1447 1448 1450 1452 1454 1456 1458 1460 1461 1464 1466 1468
1441 1442 1445 1448 1451 1453 1454 1455 1456 1458 1459 1460 1460 1461 1462 1462 1462 1462 1463 1462 1460 1459 1457 1455 1454 1453 1452 1450 1448 1447 1447 1447 1448 1449 1451 1453 1455 1457 1459 1460 1461 1463 1465 1467
1444 1446 1448 1450 1453 1455 1456 1457 1458 1460 1462 1462 1463 1464 1465 1465 1466 1466 1466 1466 1464 1463 1461 1460 1458 1457 1455 1454 1452 1451 1451 1451 1452 1452 1453 1455 1457 1459 1460 1462 1463 1464 1465 1467
1445 1448 1450 1453 1455 1457 1458 1459 1461 1462 1464 1465 1467 1467 1468 1469 1469 1470 1470 1470 1468 1467 1466 1464 1463 1462 1460 1458 1456 1455 1455 1455 1455 1455 1456 1458 1460 1461 1463 1464 1465 1466 1467 1469
1447 1449 1451 1453 1456 1458 1460 1462 1464 1466 1467 1469 1470 1470 1472 1472 1473 1473 1474 1473 1472 1471 1470 1469 1468 1466 1464 1463 1461 1461 1461 1460 1460 1460 1461 1462 1463 1465 1466 1467 1468 1469 1470 1471
1449 1451 1453 1456 1458 1460 1463 1465 1467 1469 1470 1472 1473 1474 1475 1476 1476 1477 1477 1476 1475 1475 1475 1474 1472 1471 1469 1468 1467 1466 1466 1465 1465 1466 1466 1467 1467 1468 1469 1470 1471 1471 1472 1473
1451 1453 1455 1458 1461 1463 1465 1468 1470 1472 1474 1475 1476 1477 1478 1479 1479 1479 1479 1479 1479 1479 1479 1478 1476 1475 1474 1473 1472 1472 1471 1471 1471 1471 1471 1471 1472 1473 1473 1474 1474 1475 1475 1475
1453 1456 1458 1460 1463 1466 1468 1471 1472 1474 1476 1477 1478 1479 1480 1481 1482 1482 1482 1482 1483 1483 1482 1481 1480 1479 1478 1477 1477 1477 1476 1476 1476 1475 1475 1476 1476 1476 1477 1477 1477 1477 1478 1478
1457 1459 1461 1463 1466 1469 1471 1473 1475 1477 1478 1480 1481 1482 1483 1484 1485 1485 1485 1486 1486 1486 1485 1484 1483 1483 1482 1482 1481 1481 1480 1480 1480 1480 1479 1479 1479 1479 1479 1480 1479 1479 1479 1479
1460 1462 1464 1467 1469 1471 1474 1476 1478 1480 1481 1483 1485 1486 1486 1487 1488 1487 1488 1489 1489 1488 1488 1487 1487 1486 1486 1485 1485 1484 1484 1483 1483 1483 1483 1483 1483 1482 1482 1482 1482 1481 1481 1480
1463 1466 1468 1470 1472 1474 1477 1479 1481 1484 1485 1487 1488 1489 1489 1490 1490 1490 1491 1491 1491 1491 1491 1491 1490 1489 1489 1488 1487 1487 1487 1486 1486 1486 1486 1485 1485 1485 1484 1484 1483 1482 1482 1481
1467 1469 1471 1473 1475 1477 1480 1482 1484 1486 1488 1489 1491 1492 1492 1492 1493 1493 1493 1494 1494 1493 1493 1493 1492 1492 1491 1491 1490 1490 1490 1489 1489 1489 1488 1488 1487 1486 1486 1485 1484 1483 1482 1481
1470 1472 1474 1476 1478 1480 1483 1484 1486 1488 1490 1491 1493 1494 1494 1495 1495 1495 1496 1496 1496 1496 1495 1495 1495 1494 1494 1493 1493 1493 1492 1492 1491 1491 1490 1489 1489 1488 1487 1486 1485 1484 1483 1482
1474 1476 1478 1480 1482 1484 1485 1487 1489 1490 1492 1493 1494 1496 1496 1497 1497 1497 1498 1498 1498 1498 1497 1497 1497 1496 1496 1495 1495 1495 1494 1494 1493 1492 1492 1491 1490 1489 1488 1487 1486 1485 1484 1482